Theta_e
304 305 304 305 306 304 305 305 306 307 314 323 323 323 322 321 322 322 320 320 320 319
299 299 299 299 300 300 300 300 301 303 304 306 309 317 322 321 320 321 320 319 319 319
297 297 297 297 296 297 297 298 298 299 300 301 303 305 306 310 315 319 321 320 320 320
295 294 294 293 293 293 294 294 295 295 296 297 298 300 301 302 304 305 309 315 319 319
291 290 290 289 289 290 290 291 292 292 293 293 294 295 296 296 298 298 300 303 305 307
286 286 286 286 287 287 287 288 288 289 289 290 291 291 293 293 292 293 295 296 297 298
283 283 284 284 284 284 285 285 285 286 287 288 288 290 288 288 288 289 291 293 294 295
282 282 282 282 282 283 283 283 284 284 284 285 286 286 285 285 286 287 288 290 291 292
281 281 280 280 281 281 281 281 282 282 282 283 284 285 285 284 284 285 285 286 288 290
279 279 279 280 280 279 279 280 280 281 281 281 282 284 284 283 282 284 285 286 286 287
278 277 278 278 278 278 278 278 278 279 279 279 280 282 282 282 282 282 283 284 285 285
276 275 276 276 276 276 276 277 277 277 277 278 278 280 281 281 280 280 281 282 283 283
274 274 274 274 274 275 275 275 276 276 277 277 277 279 280 280 279 278 278 280 281 281
272 272 273 273 273 273 273 274 274 274 275 276 277 277 279 279 278 277 277 278 278 279
Wind_Speed
11 7 7 9 6 6 5 5 8 7 7 5 5 5 4 4 6 7 7 10 9 7
10 10 9 10 8 6 8 7 8 8 7 6 6 5 5 4 6 6 8 8 9 8
10 10 9 9 10 10 9 9 9 9 9 9 9 9 9 6 5 6 5 6 9 9
10 11 11 10 10 11 10 11 11 11 11 11 11 10 9 10 9 9 9 8 8 10
10 10 10 10 10 11 11 11 11 11 11 11 11 11 10 11 10 11 11 11 11 11
10 10 11 10 10 10 10 11 12 12 11 12 12 11 10 12 13 13 12 12 13 13
9 9 10 10 10 10 9 10 11 11 11 11 12 12 13 14 13 13 13 12 12 12
8 8 9 10 9 9 9 10 10 10 10 11 10 9 14 14 14 14 14 12 12 11
7 8 9 7 9 9 10 10 9 10 11 12 8 15 19 17 13 14 13 12 12 12
7 8 9 8 8 9 9 9 10 9 9 9 10 17 20 22 12 12 12 13 12 11
7 8 8 8 9 10 9 10 9 9 11 11 10 18 20 21 13 12 12 12 14 14
9 9 10 10 10 10 10 10 10 9 11 11 10 18 19 18 13 13 13 12 13 13
8 8 8 8 8 8 8 9 8 11 9 11 11 15 18 17 10 13 12 12 13 17
7 7 7 8 7 8 9 9 9 10 9 10 10 11 19 21 12 11 12 12 11 11
Wind_Direction
52 58 55 48 52 52 44 32 13 11 7 335 310 297 268 237 239 249 235 241 237 244
55 59 58 50 46 43 33 23 17 12 6 348 342 328 276 248 245 240 245 241 247 244
62 55 54 48 41 30 27 14 12 7 2 356 351 348 345 333 325 301 261 247 244 245
61 53 51 47 37 24 19 12 8 3 355 353 349 348 341 336 324 323 312 292 262 257
55 51 49 43 32 24 17 8 2 357 355 353 349 345 342 334 331 321 314 310 306 303
46 40 37 31 26 25 23 14 1 356 354 352 346 343 342 348 337 328 322 321 322 320
39 41 35 25 25 18 19 24 6 356 352 354 352 342 359 343 335 328 323 323 321 317
38 37 43 35 20 17 15 28 4 353 357 351 359 5 348 343 333 328 321 319 318 316
45 46 44 33 24 18 15 17 1 356 360 351 343 347 346 344 331 325 319 319 321 318
39 41 30 25 22 16 11 3 358 350 349 330 334 351 344 340 327 319 320 317 317 318
35 37 23 18 15 7 4 355 347 344 341 338 334 342 340 339 324 320 320 322 317 321
30 22 15 11 2 357 351 342 338 329 327 333 330 334 336 336 324 316 317 317 315 318
21 14 8 360 352 343 333 325 329 329 329 327 322 327 333 332 318 316 318 315 312 309
9 350 3 356 343 336 332 332 328 325 326 320 327 328 329 328 322 317 315 314 315 312